| time (UTC) | temp C | wind direction | speed KPH | gust KPH | rain 1hr cm | rain 24hr cm | rain mn cm | humidity % | barometer mb |
| 20260507211004 | 24 | 334 | 9.7 | 20.9 | 0.00 | 0.00 | 0.00 | 30 | 1008.2 |
| 20260507210504 | 24 | 329 | 4.8 | 19.3 | 0.00 | 0.00 | 0.00 | 29 | 1008.2 |
| 20260507210005 | 24 | 11 | 11.3 | 22.5 | 0.00 | 0.00 | 0.00 | 30 | 1008.3 |
| 20260507205503 | 25 | 321 | 9.7 | 22.5 | 0.00 | 0.00 | 0.00 | 30 | 1008.3 |
| 20260507205003 | 25 | 291 | 11.3 | 17.7 | 0.00 | 0.00 | 0.00 | 29 | 1008.4 |
| 20260507204004 | 24 | 351 | 6.4 | 17.7 | 0.00 | 0.00 | 0.00 | 32 | 1008.4 |
| 20260507203501 | 24 | 296 | 6.4 | 17.7 | 0.00 | 0.00 | 0.00 | 30 | 1008.5 |
| 20260507203001 | 24 | 9 | 6.4 | 22.5 | 0.00 | 0.00 | 0.00 | 32 | 1008.6 |
| 20260507202500 | 23 | 351 | 6.4 | 22.5 | 0.00 | 0.00 | 0.00 | 32 | 1008.6 |
| 20260507202001 | 23 | 9 | 4.8 | 17.7 | 0.00 | 0.00 | 0.00 | 32 | 1008.6 |
| 20260507201500 | 23 | 323 | 8.0 | 17.7 | 0.00 | 0.00 | 0.00 | 36 | 1008.6 |
| 20260507201000 | 23 | 23 | 4.8 | 17.7 | 0.00 | 0.00 | 0.00 | 34 | 1008.6 |
| 20260507200500 | 23 | 298 | 6.4 | 17.7 | 0.00 | 0.00 | 0.00 | 31 | 1008.7 |
| 20260507195959 | 23 | 11 | 6.4 | 17.7 | 0.00 | 0.00 | 0.00 | 30 | 1008.7 |
| 20260507195500 | 23 | 255 | 6.4 | 19.3 | 0.00 | 0.00 | 0.00 | 35 | 1008.7 |
| 20260507194458 | 22 | 252 | 6.4 | 22.5 | 0.00 | 0.00 | 0.00 | 36 | 1008.6 |
| 20260507193959 | 22 | 249 | 12.9 | 22.5 | 0.00 | 0.00 | 0.00 | 31 | 1008.8 |
| 20260507193459 | 23 | 250 | 14.5 | 20.9 | 0.00 | 0.00 | 0.00 | 31 | 1008.7 |
| 20260507192957 | 22 | 302 | 8.0 | 20.9 | 0.00 | 0.00 | 0.00 | 38 | 1008.7 |
| 20260507192457 | 22 | 279 | 9.7 | 19.3 | 0.00 | 0.00 | 0.00 | 41 | 1008.7 |
| 20260507191457 | 22 | 242 | 9.7 | 20.9 | 0.00 | 0.00 | 0.00 | 36 | 1008.8 |
| 20260507190956 | 22 | 240 | 6.4 | 25.7 | 0.00 | 0.00 | 0.00 | 37 | 1008.7 |
| 20260507190457 | 22 | 286 | 6.4 | 25.7 | 0.00 | 0.00 | 0.00 | 41 | 1008.9 |
| 20260507185955 | 22 | 309 | 11.3 | 20.9 | 0.00 | 0.00 | 0.00 | 38 | 1008.9 |
| 20260507185457 | 22 | 9 | 4.8 | 19.3 | 0.00 | 0.00 | 0.00 | 35 | 1008.8 |
| 20260507184455 | 21 | 223 | 9.7 | 22.5 | 0.00 | 0.00 | 0.00 | 37 | 1009.0 |
| 20260507183956 | 21 | 294 | 11.3 | 29.0 | 0.00 | 0.00 | 0.00 | 37 | 1008.9 |
| 20260507183455 | 21 | 257 | 11.3 | 29.0 | 0.00 | 0.00 | 0.00 | 40 | 1009.1 |
| 20260507182453 | 20 | 243 | 8.0 | 19.3 | 0.00 | 0.00 | 0.00 | 37 | 1009.1 |
| 20260507181953 | 21 | 254 | 11.3 | 19.3 | 0.00 | 0.00 | 0.00 | 35 | 1009.2 |
| 20260507181453 | 21 | 216 | 8.0 | 25.7 | 0.00 | 0.00 | 0.00 | 40 | 1009.3 |
| 20260507180952 | 21 | 261 | 8.0 | 25.7 | 0.00 | 0.00 | 0.00 | 39 | 1009.4 |
| 20260507180452 | 20 | 267 | 12.9 | 25.7 | 0.00 | 0.00 | 0.00 | 41 | 1009.3 |
| 20260507175952 | 20 | 273 | 14.5 | 24.1 | 0.00 | 0.00 | 0.00 | 38 | 1009.5 |
| 20260507175452 | 20 | 238 | 11.3 | 25.7 | 0.00 | 0.00 | 0.00 | 37 | 1009.6 |
| 20260507173951 | 19 | 291 | 6.4 | 24.1 | 0.00 | 0.00 | 0.00 | 46 | 1009.6 |
| 20260507173450 | 19 | 240 | 14.5 | 25.7 | 0.00 | 0.00 | 0.00 | 39 | 1009.7 |
| 20260507172950 | 19 | 241 | 12.9 | 25.7 | 0.00 | 0.00 | 0.00 | 40 | 1009.8 |
| 20260507172450 | 19 | 230 | 8.0 | 27.4 | 0.00 | 0.00 | 0.00 | 42 | 1009.9 |
| 20260507171949 | 18 | 309 | 11.3 | 27.4 | 0.00 | 0.00 | 0.00 | 42 | 1010.0 |
| 20260507171448 | 18 | 236 | 12.9 | 24.1 | 0.00 | 0.00 | 0.00 | 39 | 1010.0 |
| 20260507170948 | 18 | 238 | 11.3 | 27.4 | 0.00 | 0.00 | 0.00 | 40 | 1010.0 |
| 20260507170448 | 18 | 196 | 14.5 | 27.4 | 0.00 | 0.00 | 0.00 | 40 | 1010.3 |
| 20260507165948 | 18 | 250 | 6.4 | 17.7 | 0.00 | 0.00 | 0.00 | 42 | 1010.3 |
| 20260507165447 | 18 | 270 | 8.0 | 25.7 | 0.00 | 0.00 | 0.00 | 43 | 1010.4 |
| 20260507164448 | 18 | 200 | 6.4 | 16.1 | 0.00 | 0.00 | 0.00 | 43 | 1010.5 |
| 20260507163946 | 18 | 221 | 8.0 | 16.1 | 0.00 | 0.00 | 0.00 | 46 | 1010.5 |
| 20260507163447 | 18 | 254 | 4.8 | 17.7 | 0.00 | 0.00 | 0.00 | 44 | 1010.5 |
| 20260507161444 | 17 | 229 | 11.3 | 19.3 | 0.00 | 0.00 | 0.00 | 45 | 1010.8 |
| 20260507160944 | 17 | 229 | 9.7 | 17.7 | 0.00 | 0.00 | 0.00 | 49 | 1010.8 |
| 20260507160443 | 16 | 212 | 9.7 | 16.1 | 0.00 | 0.00 | 0.00 | 49 | 1010.8 |
| 20260507155942 | 16 | 178 | 6.4 | 16.1 | 0.00 | 0.00 | 0.00 | 48 | 1010.8 |
| 20260507155443 | 16 | 229 | 8.0 | 17.7 | 0.00 | 0.00 | 0.00 | 49 | 1010.9 |
| 20260507154942 | 16 | 249 | 8.0 | 17.7 | 0.00 | 0.00 | 0.00 | 51 | 1010.9 |
| 20260507153941 | 16 | 205 | 8.0 | 14.5 | 0.00 | 0.00 | 0.00 | 53 | 1011.0 |
| 20260507153441 | 16 | 232 | 4.8 | 14.5 | 0.00 | 0.00 | 0.00 | 50 | 1011.1 |
| 20260507152940 | 16 | 229 | 9.7 | 14.5 | 0.00 | 0.00 | 0.00 | 54 | 1011.2 |
| 20260507152441 | 16 | 282 | 9.7 | 16.1 | 0.00 | 0.00 | 0.00 | 54 | 1011.2 |
| 20260507151939 | 15 | 225 | 9.7 | 16.1 | 0.00 | 0.00 | 0.00 | 54 | 1011.3 |
| 20260507151439 | 15 | 237 | 4.8 | 17.7 | 0.00 | 0.00 | 0.00 | 57 | 1011.3 |
| 20260507150939 | 15 | 237 | 6.4 | 19.3 | 0.00 | 0.00 | 0.00 | 57 | 1011.4 |
| 20260507150439 | 15 | 248 | 9.7 | 19.3 | 0.00 | 0.00 | 0.00 | 56 | 1011.6 |
| 20260507145938 | 15 | 294 | 9.7 | 17.7 | 0.00 | 0.00 | 0.00 | 58 | 1011.6 |
| 20260507145437 | 15 | 306 | 4.8 | 17.7 | 0.00 | 0.00 | 0.00 | 61 | 1011.7 |
| 20260507144937 | 14 | 244 | 11.3 | 16.1 | 0.00 | 0.00 | 0.00 | 58 | 1011.6 |
| 20260507143937 | 13 | 344 | 8.0 | 14.5 | 0.00 | 0.00 | 0.00 | 64 | 1011.7 |
| 20260507143437 | 13 | 279 | 6.4 | 17.7 | 0.00 | 0.00 | 0.00 | 64 | 1011.6 |
| 20260507142936 | 12 | 221 | 9.7 | 17.7 | 0.00 | 0.00 | 0.00 | 63 | 1011.7 |
| 20260507142436 | 12 | 257 | 3.2 | 17.7 | 0.00 | 0.00 | 0.00 | 66 | 1011.7 |
| 20260507141936 | 12 | 203 | 8.0 | 19.3 | 0.00 | 0.00 | 0.00 | 66 | 1011.7 |
| 20260507141435 | 12 | 194 | 9.7 | 22.5 | 0.00 | 0.00 | 0.00 | 65 | 1011.8 |
| 20260507140434 | 11 | 230 | 9.7 | 19.3 | 0.00 | 0.00 | 0.00 | 67 | 1011.9 |
| 20260507135433 | 11 | 215 | 12.9 | 20.9 | 0.00 | 0.00 | 0.00 | 68 | 1011.8 |
| 20260507134934 | 11 | 262 | 9.7 | 19.3 | 0.00 | 0.00 | 0.00 | 68 | 1011.8 |
| 20260507134434 | 11 | 225 | 11.3 | 19.3 | 0.00 | 0.00 | 0.00 | 69 | 1011.9 |
| 20260507133933 | 10 | 273 | 9.7 | 20.9 | 0.00 | 0.00 | 0.00 | 71 | 1011.8 |
| 20260507133433 | 10 | 284 | 11.3 | 20.9 | 0.00 | 0.00 | 0.00 | 71 | 1011.9 |
| 20260507132932 | 10 | 225 | 8.0 | 24.1 | 0.00 | 0.00 | 0.00 | 73 | 1012.0 |
| 20260507132429 | 10 | 225 | 12.9 | 24.1 | 0.00 | 0.00 | 0.00 | 73 | 1011.9 |
| 20260507131426 | 9 | 257 | 8.0 | 20.9 | 0.00 | 0.00 | 0.00 | 75 | 1011.8 |
| 20260507130926 | 9 | 209 | 9.7 | 20.9 | 0.00 | 0.00 | 0.00 | 76 | 1012.1 |
| 20260507130426 | 8 | 221 | 8.0 | 19.3 | 0.00 | 0.00 | 0.00 | 77 | 1012.1 |
| 20260507125925 | 8 | 231 | 9.7 | 19.3 | 0.00 | 0.00 | 0.00 | 76 | 1012.1 |
| 20260507125424 | 8 | 203 | 11.3 | 17.7 | 0.00 | 0.00 | 0.00 | 77 | 1012.1 |
| 20260507124924 | 8 | 192 | 9.7 | 17.7 | 0.00 | 0.00 | 0.00 | 78 | 1012.1 |
| 20260507124425 | 8 | 262 | 8.0 | 16.1 | 0.00 | 0.00 | 0.00 | 79 | 1012.1 |
| 20260507123925 | 8 | 207 | 9.7 | 17.7 | 0.00 | 0.00 | 0.00 | 79 | 1012.1 |
| 20260507122923 | 7 | 226 | 8.0 | 17.7 | 0.00 | 0.00 | 0.00 | 80 | 1012.1 |
| 20260507122423 | 7 | 217 | 8.0 | 16.1 | 0.00 | 0.00 | 0.00 | 80 | 1012.1 |
| 20260507121421 | 7 | 226 | 4.8 | 14.5 | 0.00 | 0.00 | 0.00 | 80 | 1012.2 |
| 20260507120920 | 7 | 221 | 6.4 | 14.5 | 0.00 | 0.00 | 0.00 | 80 | 1012.2 |
| 20260507120422 | 7 | 221 | 6.4 | 12.9 | 0.00 | 0.00 | 0.00 | 80 | 1012.1 |
| 20260507115919 | 7 | 203 | 4.8 | 11.3 | 0.00 | 0.00 | 0.00 | 80 | 1012.1 |
| 20260507115419 | 7 | 196 | 4.8 | 11.3 | 0.00 | 0.00 | 0.00 | 80 | 1012.1 |
| 20260507114918 | 7 | 232 | 4.8 | 12.9 | 0.00 | 0.00 | 0.00 | 80 | 1012.1 |
| 20260507114418 | 7 | 257 | 4.8 | 12.9 | 0.00 | 0.00 | 0.00 | 80 | 1012.2 |
| 20260507113919 | 7 | 193 | 4.8 | 9.7 | 0.00 | 0.00 | 0.00 | 80 | 1012.2 |
| 20260507113417 | 7 | 225 | 6.4 | 12.9 | 0.00 | 0.00 | 0.00 | 80 | 1012.3 |
| 20260507112916 | 7 | 212 | 6.4 | 12.9 | 0.00 | 0.00 | 0.00 | 79 | 1012.2 |
| 20260507112415 | 7 | 255 | 4.8 | 11.3 | 0.00 | 0.00 | 0.00 | 79 | 1012.2 |
| 20260507111916 | 7 | 261 | 4.8 | 12.9 | 0.00 | 0.00 | 0.00 | 79 | 1012.3 |
| 20260507111415 | 7 | 238 | 4.8 | 14.5 | 0.00 | 0.00 | 0.00 | 79 | 1012.2 |
| 20260507110914 | 7 | 230 | 8.0 | 14.5 | 0.00 | 0.00 | 0.00 | 79 | 1012.2 |
| 20260507110414 | 7 | 214 | 6.4 | 11.3 | 0.00 | 0.00 | 0.00 | 79 | 1012.2 |
| 20260507105413 | 7 | 207 | 4.8 | 11.3 | 0.00 | 0.00 | 0.00 | 78 | 1012.3 |
| 20260507104912 | 7 | 265 | 6.4 | 11.3 | 0.00 | 0.00 | 0.00 | 78 | 1012.2 |
| 20260507104412 | 7 | 221 | 4.8 | 11.3 | 0.00 | 0.00 | 0.00 | 78 | 1012.3 |
| 20260507103411 | 7 | 214 | 4.8 | 12.9 | 0.00 | 0.00 | 0.00 | 78 | 1012.2 |
| 20260507102911 | 7 | 241 | 3.2 | 14.5 | 0.00 | 0.00 | 0.00 | 77 | 1012.2 |
| 20260507102410 | 7 | 250 | 8.0 | 14.5 | 0.00 | 0.00 | 0.00 | 77 | 1012.2 |
| 20260507101910 | 7 | 223 | 3.2 | 11.3 | 0.00 | 0.00 | 0.00 | 77 | 1012.2 |
| 20260507100909 | 7 | 250 | 4.8 | 11.3 | 0.00 | 0.00 | 0.00 | 77 | 1012.2 |
| 20260507100409 | 7 | 254 | 4.8 | 9.7 | 0.00 | 0.00 | 0.00 | 77 | 1012.2 |
| 20260507095909 | 7 | 219 | 4.8 | 9.7 | 0.00 | 0.00 | 0.00 | 76 | 1012.3 |
| 20260507095408 | 7 | 196 | 6.4 | 11.3 | 0.00 | 0.00 | 0.00 | 76 | 1012.3 |
| 20260507094908 | 7 | 232 | 6.4 | 11.3 | 0.00 | 0.00 | 0.00 | 76 | 1012.3 |
| 20260507094407 | 7 | 225 | 6.4 | 11.3 | 0.00 | 0.00 | 0.00 | 75 | 1012.4 |
| 20260507093406 | 7 | 219 | 4.8 | 11.3 | 0.00 | 0.00 | 0.00 | 75 | 1012.4 |
| 20260507092906 | 7 | 229 | 6.4 | 11.3 | 0.00 | 0.00 | 0.00 | 76 | 1012.5 |
| 20260507091905 | 7 | 201 | 4.8 | 11.3 | 0.00 | 0.00 | 0.00 | 76 | 1012.5 |
| 20260507091405 | 7 | 265 | 4.8 | 11.3 | 0.00 | 0.00 | 0.00 | 76 | 1012.6 |
| 20260507090905 | 7 | 265 | 4.8 | 11.3 | 0.00 | 0.00 | 0.00 | 77 | 1012.6 |
| 20260507090404 | 6 | 201 | 3.2 | 11.3 | 0.00 | 0.00 | 0.00 | 77 | 1012.6 |
| 20260507085904 | 6 | 219 | 4.8 | 8.0 | 0.00 | 0.00 | 0.00 | 77 | 1012.7 |
| 20260507085403 | 6 | 214 | 3.2 | 8.0 | 0.00 | 0.00 | 0.00 | 77 | 1012.8 |
| 20260507084904 | 6 | 210 | 3.2 | 6.4 | 0.00 | 0.00 | 0.00 | 77 | 1012.9 |
| 20260507084404 | 5 | 234 | 1.6 | 6.4 | 0.00 | 0.00 | 0.00 | 75 | 1013.0 |
| 20260507083902 | 5 | 178 | 1.6 | 3.2 | 0.00 | 0.00 | 0.00 | 75 | 1013.0 |
| 20260507083402 | 5 | 221 | 0.0 | 3.2 | 0.00 | 0.00 | 0.00 | 74 | 1013.1 |
| 20260507082856 | 5 | 137 | 0.0 | 3.2 | 0.00 | 0.00 | 0.00 | 74 | 1013.3 |
| 20260507082357 | 5 | 161 | 1.6 | 3.2 | 0.00 | 0.00 | 0.00 | 74 | 1013.3 |
| 20260507081855 | 5 | 178 | 0.0 | 3.2 | 0.00 | 0.00 | 0.00 | 73 | 1013.4 |
| 20260507080855 | 5 | 196 | 1.6 | 3.2 | 0.00 | 0.00 | 0.00 | 73 | 1013.5 |
| 20260507080355 | 5 | 146 | 1.6 | 3.2 | 0.00 | 0.00 | 0.00 | 73 | 1013.6 |
| 20260507075356 | 5 | 119 | 0.0 | 1.6 | 0.00 | 0.00 | 0.00 | 72 | 1013.8 |
| 20260507074354 | 5 | 178 | 0.0 | 4.8 | 0.00 | 0.00 | 0.00 | 73 | 1013.8 |
| 20260507073854 | 5 | 119 | 0.0 | 3.2 | 0.00 | 0.00 | 0.00 | 72 | 1013.8 |
| 20260507072353 | 5 | 178 | 0.0 | 1.6 | 0.00 | 0.00 | 0.00 | 72 | 1013.9 |
| 20260507071847 | 5 | 126 | 0.0 | 1.6 | 0.00 | 0.00 | 0.00 | 72 | 1014.0 |
| 20260507071347 | 5 | 298 | 0.0 | 3.2 | 0.00 | 0.00 | 0.00 | 73 | 1014.2 |
| 20260507070846 | 5 | 119 | 1.6 | 3.2 | 0.00 | 0.00 | 0.00 | 73 | 1014.2 |
| 20260507070347 | 5 | 162 | 1.6 | 4.8 | 0.00 | 0.00 | 0.00 | 74 | 1014.1 |
| 20260507065846 | 5 | 129 | 1.6 | 6.4 | 0.00 | 0.00 | 0.00 | 75 | 1014.2 |
| 20260507065345 | 5 | 83 | 3.2 | 6.4 | 0.00 | 0.00 | 0.00 | 75 | 1014.3 |
| 20260507064841 | 5 | 137 | 3.2 | 4.8 | 0.00 | 0.00 | 0.00 | 74 | 1014.5 |
| 20260507064341 | 5 | 124 | 3.2 | 4.8 | 0.00 | 0.00 | 0.00 | 74 | 1014.5 |
| 20260507063339 | 5 | 119 | 1.6 | 4.8 | 0.00 | 0.00 | 0.00 | 74 | 1014.5 |
| 20260507062338 | 5 | 111 | 1.6 | 4.8 | 0.00 | 0.00 | 0.00 | 76 | 1014.6 |
| 20260507061838 | 5 | 117 | 1.6 | 4.8 | 0.00 | 0.00 | 0.00 | 76 | 1014.6 |
| 20260507061338 | 4 | 121 | 3.2 | 4.8 | 0.00 | 0.00 | 0.00 | 76 | 1014.7 |
| 20260507060837 | 4 | 115 | 3.2 | 4.8 | 0.00 | 0.00 | 0.00 | 77 | 1014.8 |
| 20260507060337 | 4 | 111 | 1.6 | 4.8 | 0.00 | 0.00 | 0.00 | 76 | 1014.8 |
| 20260507055837 | 4 | 238 | 0.0 | 4.8 | 0.00 | 0.00 | 0.00 | 76 | 1014.8 |
| 20260507055337 | 4 | 124 | 1.6 | 4.8 | 0.00 | 0.00 | 0.00 | 76 | 1014.8 |
| 20260507054839 | 4 | 83 | 3.2 | 4.8 | 0.00 | 0.00 | 0.00 | 77 | 1014.8 |
| 20260507054337 | 4 | 111 | 1.6 | 4.8 | 0.00 | 0.00 | 0.00 | 77 | 1014.9 |
| 20260507053336 | 4 | 238 | 0.0 | 3.2 | 0.00 | 0.00 | 0.00 | 77 | 1014.9 |
| 20260507052837 | 4 | 153 | 1.6 | 4.8 | 0.00 | 0.00 | 0.00 | 78 | 1014.9 |
| 20260507051836 | 3 | 153 | 1.6 | 3.2 | 0.00 | 0.00 | 0.00 | 78 | 1014.9 |
| 20260507051337 | 3 | 80 | 1.6 | 3.2 | 0.00 | 0.00 | 0.00 | 77 | 1015.1 |
| 20260507050837 | 3 | 212 | 1.6 | 3.2 | 0.00 | 0.00 | 0.00 | 76 | 1015.1 |
| 20260507050337 | 3 | 232 | 0.0 | 1.6 | 0.00 | 0.00 | 0.00 | 76 | 1014.9 |
| 20260507045834 | 3 | 137 | 0.0 | 1.6 | 0.00 | 0.00 | 0.00 | 75 | 1014.8 |
| 20260507045335 | 4 | 137 | 0.0 | 1.6 | 0.00 | 0.00 | 0.00 | 75 | 1014.9 |
| 20260507044836 | 4 | 93 | 0.0 | 0.0 | 0.00 | 0.00 | 0.00 | 74 | 1015.0 |
| 20260507043834 | 4 | 93 | 0.0 | 3.2 | 0.00 | 0.00 | 0.00 | 73 | 1015.1 |
| 20260507043334 | 4 | 221 | 0.0 | 3.2 | 0.00 | 0.00 | 0.00 | 73 | 1015.1 |
| 20260507042834 | 4 | 162 | 1.6 | 3.2 | 0.00 | 0.00 | 0.00 | 72 | 1015.2 |
| 20260507042335 | 4 | 93 | 0.0 | 3.2 | 0.00 | 0.00 | 0.00 | 71 | 1015.3 |
| 20260507041833 | 5 | 34 | 1.6 | 6.4 | 0.00 | 0.00 | 0.00 | 71 | 1015.3 |
| 20260507041333 | 5 | 76 | 3.2 | 6.4 | 0.00 | 0.00 | 0.00 | 70 | 1015.4 |
| 20260507040333 | 5 | 265 | 0.0 | 1.6 | 0.00 | 0.00 | 0.00 | 70 | 1015.3 |
| 20260507035834 | 5 | 178 | 0.0 | 1.6 | 0.00 | 0.00 | 0.00 | 69 | 1015.4 |
| 20260507035333 | 5 | 137 | 1.6 | 1.6 | 0.00 | 0.00 | 0.00 | 69 | 1015.4 |
| 20260507034832 | 5 | 178 | 1.6 | 1.6 | 0.00 | 0.00 | 0.00 | 69 | 1015.4 |
| 20260507034334 | 6 | 309 | 0.0 | 3.2 | 0.00 | 0.00 | 0.00 | 68 | 1015.4 |
| 20260507033832 | 6 | 309 | 0.0 | 3.2 | 0.00 | 0.00 | 0.00 | 66 | 1015.4 |
| 20260507033332 | 6 | 51 | 0.0 | 1.6 | 0.00 | 0.00 | 0.00 | 65 | 1015.5 |
| 20260507032832 | 6 | 119 | 0.0 | 1.6 | 0.00 | 0.00 | 0.00 | 64 | 1015.6 |
| 20260507032332 | 6 | 51 | 0.0 | 1.6 | 0.00 | 0.00 | 0.00 | 62 | 1015.6 |
| 20260507031832 | 6 | 309 | 0.0 | 1.6 | 0.00 | 0.00 | 0.00 | 61 | 1015.7 |
| 20260507031330 | 6 | 309 | 1.6 | 1.6 | 0.00 | 0.00 | 0.00 | 60 | 1015.6 |
| 20260507030830 | 6 | 9 | 1.6 | 1.6 | 0.00 | 0.00 | 0.00 | 59 | 1015.6 |
| 20260507025829 | 7 | 9 | 0.0 | 1.6 | 0.00 | 0.00 | 0.00 | 58 | 1015.6 |
| 20260507025329 | 7 | 205 | 0.0 | 1.6 | 0.00 | 0.00 | 0.00 | 58 | 1015.6 |
| 20260507024829 | 7 | 178 | 0.0 | 1.6 | 0.00 | 0.00 | 0.00 | 57 | 1015.5 |
| 20260507024329 | 7 | 309 | 0.0 | 1.6 | 0.00 | 0.00 | 0.00 | 54 | 1015.6 |
| 20260507023829 | 7 | 291 | 0.0 | 1.6 | 0.00 | 0.00 | 0.00 | 54 | 1015.6 |
| 20260507023328 | 8 | 137 | 1.6 | 1.6 | 0.00 | 0.00 | 0.00 | 53 | 1015.6 |
| 20260507022828 | 8 | 111 | 0.0 | 3.2 | 0.00 | 0.00 | 0.00 | 52 | 1015.5 |
| 20260507022328 | 8 | 93 | 1.6 | 3.2 | 0.00 | 0.00 | 0.00 | 51 | 1015.4 |
| 20260507021827 | 8 | 119 | 1.6 | 3.2 | 0.00 | 0.00 | 0.00 | 49 | 1015.4 |
| 20260507021327 | 8 | 137 | 0.0 | 1.6 | 0.00 | 0.00 | 0.00 | 50 | 1015.3 |
| 20260507020827 | 9 | 162 | 0.0 | 1.6 | 0.00 | 0.00 | 0.00 | 49 | 1015.4 |
| 20260507020327 | 10 | 137 | 0.0 | 1.6 | 0.00 | 0.00 | 0.00 | 47 | 1015.3 |
| 20260507015827 | 10 | 51 | 0.0 | 1.6 | 0.00 | 0.00 | 0.00 | 46 | 1015.2 |
| 20260507015328 | 10 | 146 | 0.0 | 3.2 | 0.00 | 0.00 | 0.00 | 45 | 1015.3 |
| 20260507014828 | 11 | 178 | 0.0 | 3.2 | 0.00 | 0.00 | 0.00 | 43 | 1015.3 |
| 20260507014326 | 11 | 119 | 0.0 | 3.2 | 0.00 | 0.00 | 0.00 | 40 | 1015.2 |
| 20260507013826 | 11 | 119 | 1.6 | 3.2 | 0.00 | 0.00 | 0.00 | 40 | 1015.2 |
| 20260507013326 | 12 | 205 | 0.0 | 1.6 | 0.00 | 0.00 | 0.00 | 38 | 1015.2 |
| 20260507012825 | 12 | 34 | 0.0 | 1.6 | 0.00 | 0.00 | 0.00 | 37 | 1015.2 |
| 20260507012326 | 12 | 51 | 0.0 | 1.6 | 0.00 | 0.00 | 0.00 | 36 | 1015.3 |
| 20260507011827 | 12 | 178 | 0.0 | 3.2 | 0.00 | 0.00 | 0.00 | 36 | 1015.2 |
| 20260507011322 | 12 | 9 | 0.0 | 4.8 | 0.00 | 0.00 | 0.00 | 34 | 1015.2 |
| 20260507010811 | 12 | 330 | 1.6 | 4.8 | 0.00 | 0.00 | 0.00 | 33 | 1015.2 |
| 20260507005309 | 13 | 340 | 3.2 | 6.4 | 0.00 | 0.00 | 0.00 | 35 | 1015.2 |
| 20260507004808 | 13 | 17 | 3.2 | 8.0 | 0.00 | 0.00 | 0.00 | 32 | 1015.1 |
| 20260507004309 | 13 | 31 | 3.2 | 8.0 | 0.00 | 0.00 | 0.00 | 34 | 1015.2 |
| 20260507003809 | 14 | 103 | 1.6 | 6.4 | 0.00 | 0.00 | 0.00 | 33 | 1015.3 |
| 20260507003308 | 14 | 32 | 1.6 | 6.4 | 0.00 | 0.00 | 0.00 | 34 | 1015.4 |
| 20260507002808 | 14 | 334 | 3.2 | 4.8 | 0.00 | 0.00 | 0.00 | 33 | 1015.2 |
| 20260507002308 | 15 | 298 | 1.6 | 4.8 | 0.00 | 0.00 | 0.00 | 35 | 1015.4 |
| 20260507001808 | 15 | 334 | 1.6 | 6.4 | 0.00 | 0.00 | 0.00 | 33 | 1015.5 |
| 20260507000807 | 15 | 291 | 4.8 | 14.5 | 0.00 | 0.00 | 0.00 | 30 | 1015.6 |
| 20260507000307 | 16 | 342 | 8.0 | 14.5 | 0.00 | 0.00 | 0.00 | 31 | 1015.5 |
| 20260506235806 | 16 | 273 | 3.2 | 11.3 | 0.00 | 0.00 | 0.00 | 32 | 1015.6 |
| 20260506235306 | 16 | 275 | 3.2 | 11.3 | 0.00 | 0.00 | 0.00 | 30 | 1015.6 |
| 20260506234805 | 17 | 312 | 3.2 | 12.9 | 0.00 | 0.00 | 0.00 | 31 | 1015.7 |
| 20260506234305 | 17 | 319 | 4.8 | 12.9 | 0.00 | 0.00 | 0.00 | 31 | 1015.7 |
| 20260506233805 | 17 | 298 | 4.8 | 12.9 | 0.00 | 0.00 | 0.00 | 30 | 1015.7 |
| 20260506233305 | 17 | 291 | 4.8 | 14.5 | 0.00 | 0.00 | 0.00 | 31 | 1015.7 |
| 20260506232806 | 17 | 309 | 4.8 | 14.5 | 0.00 | 0.00 | 0.00 | 32 | 1015.7 |
| 20260506232306 | 17 | 344 | 4.8 | 9.7 | 0.00 | 0.00 | 0.00 | 32 | 1015.7 |
| 20260506231803 | 17 | 348 | 3.2 | 12.9 | 0.00 | 0.00 | 0.00 | 31 | 1015.9 |
| 20260506231303 | 17 | 9 | 4.8 | 12.9 | 0.00 | 0.00 | 0.00 | 29 | 1015.9 |
| 20260506230803 | 17 | 286 | 4.8 | 14.5 | 0.00 | 0.00 | 0.00 | 30 | 1015.9 |
| 20260506225301 | 17 | 305 | 4.8 | 14.5 | 0.00 | 0.00 | 0.00 | 31 | 1015.9 |
| 20260506224801 | 17 | 279 | 6.4 | 12.9 | 0.00 | 0.00 | 0.00 | 31 | 1016.0 |
| 20260506223800 | 17 | 281 | 8.0 | 16.1 | 0.00 | 0.00 | 0.00 | 28 | 1016.0 |
| 20260506223300 | 17 | 321 | 3.2 | 16.1 | 0.00 | 0.00 | 0.00 | 32 | 1016.2 |
| 20260506222801 | 17 | 340 | 4.8 | 17.7 | 0.00 | 0.00 | 0.00 | 30 | 1016.2 |
| 20260506222259 | 17 | 244 | 9.7 | 17.7 | 0.00 | 0.00 | 0.00 | 29 | 1016.2 |
| 20260506221759 | 17 | 331 | 4.8 | 12.9 | 0.00 | 0.00 | 0.00 | 29 | 1016.3 |
| 20260506221258 | 17 | 279 | 4.8 | 16.1 | 0.00 | 0.00 | 0.00 | 29 | 1016.5 |
| 20260506220759 | 17 | 300 | 8.0 | 16.1 | 0.00 | 0.00 | 0.00 | 31 | 1016.5 |
| 20260506220258 | 17 | 317 | 6.4 | 19.3 | 0.00 | 0.00 | 0.00 | 34 | 1016.5 |
| 20260506215757 | 17 | 300 | 8.0 | 19.3 | 0.00 | 0.00 | 0.00 | 29 | 1016.5 |
| 20260506215257 | 18 | 309 | 6.4 | 16.1 | 0.00 | 0.00 | 0.00 | 30 | 1016.6 |
| 20260506214257 | 17 | 304 | 6.4 | 22.5 | 0.00 | 0.00 | 0.00 | 32 | 1016.7 |
| 20260506213755 | 17 | 316 | 8.0 | 22.5 | 0.00 | 0.00 | 0.00 | 33 | 1016.7 |
| 20260506213254 | 17 | 312 | 6.4 | 17.7 | 0.00 | 0.00 | 0.00 | 29 | 1016.8 |
| 20260506212755 | 17 | 305 | 6.4 | 17.7 | 0.00 | 0.00 | 0.00 | 32 | 1016.9 |
| 20260506212254 | 18 | 307 | 8.0 | 17.7 | 0.00 | 0.00 | 0.00 | 29 | 1016.8 |
| 20260506211253 | 17 | 348 | 9.7 | 22.5 | 0.00 | 0.00 | 0.00 | 31 | 1016.8 |